WXM80 ListenWXM80 Stop

You find our weather info also at:

UK Metoffice

WeatherCloud

Weather Underground

Northeastern Weather Network

AWEKAS

Citizen Weather Observer Program (CWOP)

HAMweather, WeatherForYou, PWS Weather


Weather Underground History page Text

Daily Summary for July 5, 2017 Units:  Both    English   Metric
« Previous Day
Next Day »
Daily Weekly Monthly Yearly Custom
  High: Low: Average:
Temperature: 85.2 °F /  29.6 °C 62.6 °F /  17 °C 73.6 °F /  23.1 °C
Dew Point: 73.8 °F /  23.2 °C 55.0 °F /  12.8 °C 63 °F /  17.2 °C
Humidity: 92 % 38 % 72 %
Wind Speed: 7.5 mph /  12.1 km/h - 1.2 mph /  1.9 km/h
Wind Gust: 15.0 mph /  24.1 km/h - -
Wind:- - ESE
Pressure: 30.18 in /  1021.9 hPa 30.06 in /  1017.8 hPa -
Precipitation: 0.00 in /  0 mm    
Historical Graphs
 
 
Tabular Data for July 5, 2017
Time Temperature Dew Point Pressure Wind Wind Speed Wind Gust Humidity Rainfall Rate (Hourly)
00:00 68.7 °F /  20.4 °C 61.2 °F /  16.2 °C 30.07 in /  1018.2 hPa Calm     77 % 0.00 in /  0 mm
00:05 68.5 °F /  20.3 °C 61.4 °F /  16.3 °C 30.07 in /  1018.2 hPa Calm     78 % 0.00 in /  0 mm
00:10 68.3 °F /  20.2 °C 61.2 °F /  16.2 °C 30.07 in /  1018.2 hPa Calm     78 % 0.00 in /  0 mm
00:15 68.1 °F /  20.1 °C 61.0 °F /  16.1 °C 30.07 in /  1018.2 hPa Calm     78 % 0.00 in /  0 mm
00:20 67.9 °F /  19.9 °C 61.1 °F /  16.2 °C 30.06 in /  1017.8 hPa Calm     79 % 0.00 in /  0 mm
00:25 67.8 °F /  19.9 °C 61.0 °F /  16.1 °C 30.07 in /  1018.2 hPa Calm     79 % 0.00 in /  0 mm
00:30 67.6 °F /  19.8 °C 60.9 °F /  16.1 °C 30.07 in /  1018.2 hPa Calm     79 % 0.00 in /  0 mm
00:36 67.5 °F /  19.7 °C 60.8 °F /  16 °C 30.06 in /  1017.8 hPa Calm   1.0 mph /  1.6 km/h 79 % 0.00 in /  0 mm
00:41 67.4 °F /  19.7 °C 60.7 °F /  15.9 °C 30.07 in /  1018.2 hPa Calm   1.0 mph /  1.6 km/h 79 % 0.00 in /  0 mm
00:46 67.3 °F /  19.6 °C 60.9 °F /  16.1 °C 30.07 in /  1018.2 hPa WNW 0.1 mph /  0.2 km/h   80 % 0.00 in /  0 mm
00:51 67.2 °F /  19.6 °C 61.2 °F /  16.2 °C 30.06 in /  1017.8 hPa Calm     81 % 0.00 in /  0 mm
00:55 67.0 °F /  19.4 °C 61.0 °F /  16.1 °C 30.07 in /  1018.2 hPa Calm   1.2 mph /  1.9 km/h 81 % 0.00 in /  0 mm
01:01 66.9 °F /  19.4 °C 60.9 °F /  16.1 °C 30.07 in /  1018.2 hPa WNW 0.1 mph /  0.2 km/h 1.2 mph /  1.9 km/h 81 % 0.00 in /  0 mm
01:06 66.8 °F /  19.3 °C 60.8 °F /  16 °C 30.07 in /  1018.2 hPa Calm   1.2 mph /  1.9 km/h 81 % 0.00 in /  0 mm
01:11 66.7 °F /  19.3 °C 61.0 °F /  16.1 °C 30.07 in /  1018.2 hPa Calm   1.2 mph /  1.9 km/h 82 % 0.00 in /  0 mm
01:16 66.6 °F /  19.2 °C 61.3 °F /  16.3 °C 30.07 in /  1018.2 hPa Calm     83 % 0.00 in /  0 mm
01:21 66.5 °F /  19.2 °C 61.2 °F /  16.2 °C 30.07 in /  1018.2 hPa Calm     83 % 0.00 in /  0 mm
01:26 66.3 °F /  19.1 °C 61.0 °F /  16.1 °C 30.07 in /  1018.2 hPa Calm     83 % 0.00 in /  0 mm
01:31 66.3 °F /  19.1 °C 61.0 °F /  16.1 °C 30.07 in /  1018.2 hPa WNW 0.2 mph /  0.3 km/h 1.2 mph /  1.9 km/h 83 % 0.00 in /  0 mm
01:36 66.1 °F /  18.9 °C 60.8 °F /  16 °C 30.08 in /  1018.5 hPa WNW 0.1 mph /  0.2 km/h 1.0 mph /  1.6 km/h 83 % 0.00 in /  0 mm
01:41 66.1 °F /  18.9 °C 61.1 °F /  16.2 °C 30.07 in /  1018.2 hPa Calm     84 % 0.00 in /  0 mm
01:46 65.9 °F /  18.8 °C 60.9 °F /  16.1 °C 30.07 in /  1018.2 hPa WNW 0.2 mph /  0.3 km/h 1.2 mph /  1.9 km/h 84 % 0.00 in /  0 mm
01:51 65.9 °F /  18.8 °C 61.3 °F /  16.3 °C 30.08 in /  1018.5 hPa Calm     85 % 0.00 in /  0 mm
01:56 65.8 °F /  18.8 °C 61.2 °F /  16.2 °C 30.08 in /  1018.5 hPa WNW 0.1 mph /  0.2 km/h 1.2 mph /  1.9 km/h 85 % 0.00 in /  0 mm
02:01 65.7 °F /  18.7 °C 61.1 °F /  16.2 °C 30.08 in /  1018.5 hPa Calm   1.2 mph /  1.9 km/h 85 % 0.00 in /  0 mm
02:07 65.6 °F /  18.7 °C 61.0 °F /  16.1 °C 30.07 in /  1018.2 hPa Calm     85 % 0.00 in /  0 mm
02:12 65.5 °F /  18.6 °C 60.9 °F /  16.1 °C 30.07 in /  1018.2 hPa Calm     85 % 0.00 in /  0 mm
02:17 65.4 °F /  18.6 °C 61.1 °F /  16.2 °C 30.07 in /  1018.2 hPa Calm   1.2 mph /  1.9 km/h 86 % 0.00 in /  0 mm
02:22 65.4 °F /  18.6 °C 61.1 °F /  16.2 °C 30.07 in /  1018.2 hPa WNW 0.3 mph /  0.5 km/h 1.2 mph /  1.9 km/h 86 % 0.00 in /  0 mm
02:27 65.3 °F /  18.5 °C 61.0 °F /  16.1 °C 30.07 in /  1018.2 hPa WNW 0.1 mph /  0.2 km/h 1.2 mph /  1.9 km/h 86 % 0.00 in /  0 mm
02:32 65.2 °F /  18.4 °C 60.9 °F /  16.1 °C 30.07 in /  1018.2 hPa Calm     86 % 0.00 in /  0 mm
02:37 65.1 °F /  18.4 °C 61.1 °F /  16.2 °C 30.07 in /  1018.2 hPa Calm   1.2 mph /  1.9 km/h 87 % 0.00 in /  0 mm
02:42 65.0 °F /  18.3 °C 61.0 °F /  16.1 °C 30.08 in /  1018.5 hPa WNW 0.3 mph /  0.5 km/h 2.0 mph /  3.2 km/h 87 % 0.00 in /  0 mm
02:47 64.9 °F /  18.3 °C 60.9 °F /  16.1 °C 30.08 in /  1018.5 hPa Calm     87 % 0.00 in /  0 mm
02:52 64.8 °F /  18.2 °C 61.2 °F /  16.2 °C 30.08 in /  1018.5 hPa WNW 0.1 mph /  0.2 km/h 1.2 mph /  1.9 km/h 88 % 0.00 in /  0 mm
02:57 64.7 °F /  18.2 °C 61.1 °F /  16.2 °C 30.08 in /  1018.5 hPa WNW 0.4 mph /  0.6 km/h 1.2 mph /  1.9 km/h 88 % 0.00 in /  0 mm
03:02 64.7 °F /  18.2 °C 61.1 °F /  16.2 °C 30.08 in /  1018.5 hPa Calm     88 % 0.00 in /  0 mm
03:07 64.6 °F /  18.1 °C 61.0 °F /  16.1 °C 30.08 in /  1018.5 hPa Calm     88 % 0.00 in /  0 mm
03:12 64.5 °F /  18.1 °C 60.9 °F /  16.1 °C 30.08 in /  1018.5 hPa Calm     88 % 0.00 in /  0 mm
03:17 64.4 °F /  18 °C 60.8 °F /  16 °C 30.08 in /  1018.5 hPa Calm     88 % 0.00 in /  0 mm
03:22 64.4 °F /  18 °C 60.8 °F /  16 °C 30.08 in /  1018.5 hPa Calm     88 % 0.00 in /  0 mm
03:27 64.3 °F /  17.9 °C 60.7 °F /  15.9 °C 30.08 in /  1018.5 hPa WNW 0.1 mph /  0.2 km/h 1.2 mph /  1.9 km/h 88 % 0.00 in /  0 mm
03:28 64.3 °F /  17.9 °C 60.7 °F /  15.9 °C 30.08 in /  1018.5 hPa Calm   1.2 mph /  1.9 km/h 88 % 0.00 in /  0 mm
03:33 64.2 °F /  17.9 °C 60.6 °F /  15.9 °C 30.08 in /  1018.5 hPa Calm   1.2 mph /  1.9 km/h 88 % 0.00 in /  0 mm
03:38 64.1 °F /  17.8 °C 60.5 °F /  15.8 °C 30.08 in /  1018.5 hPa Calm     88 % 0.00 in /  0 mm
03:43 64.0 °F /  17.8 °C 60.7 °F /  15.9 °C 30.08 in /  1018.5 hPa Calm     89 % 0.00 in /  0 mm
03:48 63.9 °F /  17.7 °C 60.3 °F /  15.7 °C 30.09 in /  1018.8 hPa Calm     88 % 0.00 in /  0 mm
03:53 63.8 °F /  17.7 °C 60.5 °F /  15.8 °C 30.09 in /  1018.8 hPa Calm   1.2 mph /  1.9 km/h 89 % 0.00 in /  0 mm
03:58 63.8 °F /  17.7 °C 60.5 °F /  15.8 °C 30.09 in /  1018.8 hPa Calm   1.2 mph /  1.9 km/h 89 % 0.00 in /  0 mm
04:03 63.6 °F /  17.6 °C 60.3 °F /  15.7 °C 30.09 in /  1018.8 hPa Calm     89 % 0.00 in /  0 mm
04:08 63.6 °F /  17.6 °C 60.3 °F /  15.7 °C 30.09 in /  1018.8 hPa Calm     89 % 0.00 in /  0 mm
04:13 63.6 °F /  17.6 °C 60.6 °F /  15.9 °C 30.09 in /  1018.8 hPa Calm     90 % 0.00 in /  0 mm
04:18 63.5 °F /  17.5 °C 60.5 °F /  15.8 °C 30.09 in /  1018.8 hPa Calm     90 % 0.00 in /  0 mm
04:23 63.5 °F /  17.5 °C 60.5 °F /  15.8 °C 30.09 in /  1018.8 hPa Calm     90 % 0.00 in /  0 mm
04:28 63.4 °F /  17.4 °C 60.4 °F /  15.8 °C 30.09 in /  1018.8 hPa Calm     90 % 0.00 in /  0 mm
04:33 63.3 °F /  17.4 °C 60.3 °F /  15.7 °C 30.09 in /  1018.8 hPa Calm     90 % 0.00 in /  0 mm
04:38 63.3 °F /  17.4 °C 60.3 °F /  15.7 °C 30.09 in /  1018.8 hPa Calm     90 % 0.00 in /  0 mm
04:43 63.2 °F /  17.3 °C 60.2 °F /  15.7 °C 30.09 in /  1018.8 hPa Calm     90 % 0.00 in /  0 mm
04:49 63.1 °F /  17.3 °C 60.1 °F /  15.6 °C 30.09 in /  1018.8 hPa Calm     90 % 0.00 in /  0 mm
04:54 63.0 °F /  17.2 °C 60.0 °F /  15.6 °C 30.09 in /  1018.8 hPa Calm     90 % 0.00 in /  0 mm
04:59 63.0 °F /  17.2 °C 60.0 °F /  15.6 °C 30.10 in /  1019.2 hPa Calm     90 % 0.00 in /  0 mm
05:04 62.9 °F /  17.2 °C 59.9 °F /  15.5 °C 30.10 in /  1019.2 hPa Calm     90 % 0.00 in /  0 mm
05:09 62.8 °F /  17.1 °C 59.8 °F /  15.4 °C 30.10 in /  1019.2 hPa Calm     90 % 0.00 in /  0 mm
05:14 62.8 °F /  17.1 °C 59.8 °F /  15.4 °C 30.10 in /  1019.2 hPa Calm     90 % 0.00 in /  0 mm
05:15 62.8 °F /  17.1 °C 60.1 °F /  15.6 °C 30.10 in /  1019.2 hPa Calm     91 % 0.00 in /  0 mm
05:20 62.7 °F /  17.1 °C 60.0 °F /  15.6 °C 30.10 in /  1019.2 hPa Calm     91 % 0.00 in /  0 mm
05:25 62.7 °F /  17.1 °C 60.0 °F /  15.6 °C 30.11 in /  1019.5 hPa WNW 0.4 mph /  0.6 km/h 1.2 mph /  1.9 km/h 91 % 0.00 in /  0 mm
05:30 62.6 °F /  17 °C 59.9 °F /  15.5 °C 30.10 in /  1019.2 hPa WNW 0.4 mph /  0.6 km/h 1.2 mph /  1.9 km/h 91 % 0.00 in /  0 mm
05:35 62.6 °F /  17 °C 59.9 °F /  15.5 °C 30.10 in /  1019.2 hPa ENE 1.2 mph /  1.9 km/h 3.5 mph /  5.6 km/h 91 % 0.00 in /  0 mm
05:40 62.7 °F /  17.1 °C 60.0 °F /  15.6 °C 30.10 in /  1019.2 hPa ENE 1.4 mph /  2.3 km/h 3.5 mph /  5.6 km/h 91 % 0.00 in /  0 mm
05:45 62.9 °F /  17.2 °C 60.5 °F /  15.8 °C 30.11 in /  1019.5 hPa ENE 1.8 mph /  2.9 km/h 3.5 mph /  5.6 km/h 92 % 0.00 in /  0 mm
05:50 63.0 °F /  17.2 °C 60.6 °F /  15.9 °C 30.11 in /  1019.5 hPa NE 1.3 mph /  2.1 km/h 3.5 mph /  5.6 km/h 92 % 0.00 in /  0 mm
05:55 63.3 °F /  17.4 °C 60.6 °F /  15.9 °C 30.11 in /  1019.5 hPa ENE 1.6 mph /  2.6 km/h 2.3 mph /  3.7 km/h 91 % 0.00 in /  0 mm
06:00 63.6 °F /  17.6 °C 61.2 °F /  16.2 °C 30.11 in /  1019.5 hPa NE 1.8 mph /  2.9 km/h 3.5 mph /  5.6 km/h 92 % 0.00 in /  0 mm
06:01 63.7 °F /  17.6 °C 61.3 °F /  16.3 °C 30.11 in /  1019.5 hPa NE 1.0 mph /  1.6 km/h 3.5 mph /  5.6 km/h 92 % 0.00 in /  0 mm
06:06 64.0 °F /  17.8 °C 61.3 °F /  16.3 °C 30.11 in /  1019.5 hPa NE 1.2 mph /  1.9 km/h 3.5 mph /  5.6 km/h 91 % 0.00 in /  0 mm
06:11 64.3 °F /  17.9 °C 61.6 °F /  16.4 °C 30.11 in /  1019.5 hPa ENE 2.1 mph /  3.4 km/h 3.0 mph /  4.8 km/h 91 % 0.00 in /  0 mm
06:16 64.7 °F /  18.2 °C 62.0 °F /  16.7 °C 30.11 in /  1019.5 hPa NE 1.4 mph /  2.3 km/h 6.9 mph /  11.1 km/h 91 % 0.00 in /  0 mm
06:21 65.0 °F /  18.3 °C 62.0 °F /  16.7 °C 30.11 in /  1019.5 hPa NE 3.7 mph /  6 km/h 6.9 mph /  11.1 km/h 90 % 0.00 in /  0 mm
06:26 65.5 °F /  18.6 °C 62.2 °F /  16.8 °C 30.11 in /  1019.5 hPa NE 2.9 mph /  4.7 km/h 5.0 mph /  8 km/h 89 % 0.00 in /  0 mm
06:31 66.0 °F /  18.9 °C 62.7 °F /  17.1 °C 30.12 in /  1019.9 hPa NNE 1.4 mph /  2.3 km/h 2.3 mph /  3.7 km/h 89 % 0.00 in /  0 mm
06:36 66.5 °F /  19.2 °C 62.8 °F /  17.1 °C 30.12 in /  1019.9 hPa ENE 1.7 mph /  2.7 km/h 4.6 mph /  7.4 km/h 88 % 0.00 in /  0 mm
06:41 67.0 °F /  19.4 °C 63.0 °F /  17.2 °C 30.12 in /  1019.9 hPa ENE 1.1 mph /  1.8 km/h 2.3 mph /  3.7 km/h 87 % 0.00 in /  0 mm
06:46 67.6 °F /  19.8 °C 63.6 °F /  17.6 °C 30.12 in /  1019.9 hPa East 1.2 mph /  1.9 km/h 3.5 mph /  5.6 km/h 87 % 0.00 in /  0 mm
06:52 68.2 °F /  20.1 °C 64.2 °F /  17.9 °C 30.12 in /  1019.9 hPa NNE 2.0 mph /  3.2 km/h 3.5 mph /  5.6 km/h 87 % 0.00 in /  0 mm
06:57 68.8 °F /  20.4 °C 64.4 °F /  18 °C 30.12 in /  1019.9 hPa NE 1.5 mph /  2.4 km/h 4.6 mph /  7.4 km/h 86 % 0.00 in /  0 mm
07:02 69.5 °F /  20.8 °C 64.5 °F /  18.1 °C 30.12 in /  1019.9 hPa NE 2.3 mph /  3.7 km/h 3.5 mph /  5.6 km/h 84 % 0.00 in /  0 mm
07:07 70.1 °F /  21.2 °C 64.7 °F /  18.2 °C 30.13 in /  1020.2 hPa NE 1.7 mph /  2.7 km/h 3.5 mph /  5.6 km/h 83 % 0.00 in /  0 mm
07:11 70.4 °F /  21.3 °C 64.3 °F /  17.9 °C 30.13 in /  1020.2 hPa ENE 2.0 mph /  3.2 km/h 5.0 mph /  8 km/h 81 % 0.00 in /  0 mm
07:16 71.0 °F /  21.7 °C 65.3 °F /  18.5 °C 30.13 in /  1020.2 hPa NE 2.0 mph /  3.2 km/h 6.0 mph /  9.7 km/h 82 % 0.00 in /  0 mm
07:21 71.5 °F /  21.9 °C 65.0 °F /  18.3 °C 30.13 in /  1020.2 hPa NE 3.0 mph /  4.8 km/h 6.0 mph /  9.7 km/h 80 % 0.00 in /  0 mm
07:26 71.9 °F /  22.2 °C 65.1 °F /  18.4 °C 30.14 in /  1020.5 hPa NE 3.0 mph /  4.8 km/h 9.0 mph /  14.5 km/h 79 % 0.00 in /  0 mm
07:31 72.3 °F /  22.4 °C 65.0 °F /  18.3 °C 30.14 in /  1020.5 hPa NE 3.0 mph /  4.8 km/h 7.0 mph /  11.3 km/h 78 % 0.00 in /  0 mm
07:36 72.6 °F /  22.6 °C 65.0 °F /  18.3 °C 30.14 in /  1020.5 hPa NE 2.0 mph /  3.2 km/h 5.8 mph /  9.3 km/h 77 % 0.00 in /  0 mm
07:41 72.8 °F /  22.7 °C 65.2 °F /  18.4 °C 30.15 in /  1020.9 hPa NE 2.0 mph /  3.2 km/h 7.0 mph /  11.3 km/h 77 % 0.00 in /  0 mm
07:46 72.9 °F /  22.7 °C 64.9 °F /  18.3 °C 30.15 in /  1020.9 hPa NE 3.0 mph /  4.8 km/h 7.0 mph /  11.3 km/h 76 % 0.00 in /  0 mm
07:51 72.8 °F /  22.7 °C 64.4 °F /  18 °C 30.15 in /  1020.9 hPa NE 3.0 mph /  4.8 km/h 8.0 mph /  12.9 km/h 75 % 0.00 in /  0 mm
07:56 72.7 °F /  22.6 °C 65.1 °F /  18.4 °C 30.15 in /  1020.9 hPa ENE 2.0 mph /  3.2 km/h 7.0 mph /  11.3 km/h 77 % 0.00 in /  0 mm
08:01 72.6 °F /  22.6 °C 65.3 °F /  18.5 °C 30.16 in /  1021.2 hPa ENE 1.7 mph /  2.7 km/h 4.0 mph /  6.4 km/h 78 % 0.00 in /  0 mm
08:06 72.5 °F /  22.5 °C 64.9 °F /  18.3 °C 30.16 in /  1021.2 hPa ENE 2.8 mph /  4.5 km/h 6.0 mph /  9.7 km/h 77 % 0.00 in /  0 mm
08:11 72.4 °F /  22.4 °C 64.0 °F /  17.8 °C 30.16 in /  1021.2 hPa ENE 1.0 mph /  1.6 km/h 5.0 mph /  8 km/h 75 % 0.00 in /  0 mm
08:16 72.3 °F /  22.4 °C 64.3 °F /  17.9 °C 30.16 in /  1021.2 hPa ENE 1.5 mph /  2.4 km/h 3.5 mph /  5.6 km/h 76 % 0.00 in /  0 mm
08:21 72.3 °F /  22.4 °C 64.3 °F /  17.9 °C 30.16 in /  1021.2 hPa NE 0.7 mph /  1.1 km/h 2.3 mph /  3.7 km/h 76 % 0.00 in /  0 mm
08:26 72.3 °F /  22.4 °C 63.9 °F /  17.7 °C 30.16 in /  1021.2 hPa NE 0.9 mph /  1.4 km/h 3.5 mph /  5.6 km/h 75 % 0.00 in /  0 mm
08:31 72.2 °F /  22.3 °C 64.2 °F /  17.9 °C 30.16 in /  1021.2 hPa NE 0.8 mph /  1.3 km/h 2.3 mph /  3.7 km/h 76 % 0.00 in /  0 mm
08:36 72.2 °F /  22.3 °C 64.2 °F /  17.9 °C 30.16 in /  1021.2 hPa NE 3.7 mph /  6 km/h 5.8 mph /  9.3 km/h 76 % 0.00 in /  0 mm
08:41 72.2 °F /  22.3 °C 65.0 °F /  18.3 °C 30.16 in /  1021.2 hPa ENE 1.8 mph /  2.9 km/h 4.6 mph /  7.4 km/h 78 % 0.00 in /  0 mm
08:46 72.2 °F /  22.3 °C 64.6 °F /  18.1 °C 30.16 in /  1021.2 hPa NE 1.9 mph /  3.1 km/h 3.5 mph /  5.6 km/h 77 % 0.00 in /  0 mm
08:51 72.2 °F /  22.3 °C 63.8 °F /  17.7 °C 30.16 in /  1021.2 hPa NNE 2.7 mph /  4.3 km/h 4.6 mph /  7.4 km/h 75 % 0.00 in /  0 mm
08:56 72.1 °F /  22.3 °C 64.1 °F /  17.8 °C 30.16 in /  1021.2 hPa NE 2.3 mph /  3.7 km/h 4.0 mph /  6.4 km/h 76 % 0.00 in /  0 mm
09:01 72.1 °F /  22.3 °C 64.5 °F /  18.1 °C 30.17 in /  1021.6 hPa ENE 2.7 mph /  4.3 km/h 7.0 mph /  11.3 km/h 77 % 0.00 in /  0 mm
09:06 72.0 °F /  22.2 °C 64.0 °F /  17.8 °C 30.17 in /  1021.6 hPa ENE 2.2 mph /  3.5 km/h 3.5 mph /  5.6 km/h 76 % 0.00 in /  0 mm
09:11 72.0 °F /  22.2 °C 64.8 °F /  18.2 °C 30.17 in /  1021.6 hPa ENE 1.1 mph /  1.8 km/h 2.3 mph /  3.7 km/h 78 % 0.00 in /  0 mm
09:16 72.0 °F /  22.2 °C 64.4 °F /  18 °C 30.17 in /  1021.6 hPa ENE 2.1 mph /  3.4 km/h 3.5 mph /  5.6 km/h 77 % 0.00 in /  0 mm
09:21 72.0 °F /  22.2 °C 64.8 °F /  18.2 °C 30.17 in /  1021.6 hPa ENE 2.0 mph /  3.2 km/h 3.0 mph /  4.8 km/h 78 % 0.00 in /  0 mm
09:26 72.1 °F /  22.3 °C 64.9 °F /  18.3 °C 30.17 in /  1021.6 hPa NE 1.6 mph /  2.6 km/h 3.5 mph /  5.6 km/h 78 % 0.00 in /  0 mm
09:31 72.0 °F /  22.2 °C 64.8 °F /  18.2 °C 30.17 in /  1021.6 hPa ENE 1.5 mph /  2.4 km/h 2.3 mph /  3.7 km/h 78 % 0.00 in /  0 mm
09:36 72.0 °F /  22.2 °C 64.8 °F /  18.2 °C 30.17 in /  1021.6 hPa ENE 2.2 mph /  3.5 km/h 4.0 mph /  6.4 km/h 78 % 0.00 in /  0 mm
09:41 72.0 °F /  22.2 °C 64.8 °F /  18.2 °C 30.17 in /  1021.6 hPa NE 2.7 mph /  4.3 km/h 5.0 mph /  8 km/h 78 % 0.00 in /  0 mm
09:46 72.2 °F /  22.3 °C 65.0 °F /  18.3 °C 30.16 in /  1021.2 hPa ENE 3.0 mph /  4.8 km/h 4.0 mph /  6.4 km/h 78 % 0.00 in /  0 mm
09:51 72.5 °F /  22.5 °C 65.2 °F /  18.4 °C 30.16 in /  1021.2 hPa ENE 1.7 mph /  2.7 km/h 5.8 mph /  9.3 km/h 78 % 0.00 in /  0 mm
09:56 73.0 °F /  22.8 °C 65.7 °F /  18.7 °C 30.16 in /  1021.2 hPa ENE 2.2 mph /  3.5 km/h 5.8 mph /  9.3 km/h 78 % 0.00 in /  0 mm
10:02 73.5 °F /  23.1 °C 65.5 °F /  18.6 °C 30.16 in /  1021.2 hPa ENE 3.0 mph /  4.8 km/h 9.0 mph /  14.5 km/h 76 % 0.00 in /  0 mm
10:07 74.2 °F /  23.4 °C 65.8 °F /  18.8 °C 30.17 in /  1021.6 hPa ENE 3.3 mph /  5.3 km/h 5.0 mph /  8 km/h 75 % 0.00 in /  0 mm
10:12 74.8 °F /  23.8 °C 66.7 °F /  19.3 °C 30.16 in /  1021.2 hPa NNE 2.3 mph /  3.7 km/h 3.5 mph /  5.6 km/h 76 % 0.00 in /  0 mm
10:17 75.3 °F /  24.1 °C 66.8 °F /  19.3 °C 30.17 in /  1021.6 hPa ENE 1.7 mph /  2.7 km/h 3.5 mph /  5.6 km/h 75 % 0.00 in /  0 mm
10:22 75.5 °F /  24.2 °C 66.6 °F /  19.2 °C 30.17 in /  1021.6 hPa ENE 1.5 mph /  2.4 km/h 5.8 mph /  9.3 km/h 74 % 0.00 in /  0 mm
10:27 75.8 °F /  24.3 °C 67.3 °F /  19.6 °C 30.16 in /  1021.2 hPa NE 1.8 mph /  2.9 km/h 3.0 mph /  4.8 km/h 75 % 0.00 in /  0 mm
10:32 76.4 °F /  24.7 °C 68.7 °F /  20.4 °C 30.17 in /  1021.6 hPa NNE 2.3 mph /  3.7 km/h 3.0 mph /  4.8 km/h 77 % 0.00 in /  0 mm
10:37 76.8 °F /  24.9 °C 68.3 °F /  20.2 °C 30.17 in /  1021.6 hPa NE 1.0 mph /  1.6 km/h 4.0 mph /  6.4 km/h 75 % 0.00 in /  0 mm
10:42 77.2 °F /  25.1 °C 68.7 °F /  20.4 °C 30.17 in /  1021.6 hPa ENE 2.8 mph /  4.5 km/h 3.5 mph /  5.6 km/h 75 % 0.00 in /  0 mm
10:47 77.7 °F /  25.4 °C 68.4 °F /  20.2 °C 30.17 in /  1021.6 hPa NE 2.0 mph /  3.2 km/h 8.1 mph /  13 km/h 73 % 0.00 in /  0 mm
10:52 78.2 °F /  25.7 °C 68.8 °F /  20.4 °C 30.17 in /  1021.6 hPa NE 3.0 mph /  4.8 km/h 8.0 mph /  12.9 km/h 73 % 0.00 in /  0 mm
10:57 78.5 °F /  25.8 °C 68.7 °F /  20.4 °C 30.17 in /  1021.6 hPa ENE 0.3 mph /  0.5 km/h 3.5 mph /  5.6 km/h 72 % 0.00 in /  0 mm
11:02 79.0 °F /  26.1 °C 69.6 °F /  20.9 °C 30.17 in /  1021.6 hPa ENE 2.6 mph /  4.2 km/h 6.9 mph /  11.1 km/h 73 % 0.00 in /  0 mm
11:07 79.0 °F /  26.1 °C 70.4 °F /  21.3 °C 30.17 in /  1021.6 hPa NE 0.4 mph /  0.6 km/h 3.5 mph /  5.6 km/h 75 % 0.00 in /  0 mm
11:12 79.3 °F /  26.3 °C 69.9 °F /  21.1 °C 30.17 in /  1021.6 hPa ENE 1.3 mph /  2.1 km/h 8.1 mph /  13 km/h 73 % 0.00 in /  0 mm
11:15 79.3 °F /  26.3 °C 69.5 °F /  20.8 °C 30.17 in /  1021.6 hPa NE 2.7 mph /  4.3 km/h 3.5 mph /  5.6 km/h 72 % 0.00 in /  0 mm
11:20 79.3 °F /  26.3 °C 69.9 °F /  21.1 °C 30.17 in /  1021.6 hPa NE 1.8 mph /  2.9 km/h 4.6 mph /  7.4 km/h 73 % 0.00 in /  0 mm
11:25 79.2 °F /  26.2 °C 69.4 °F /  20.8 °C 30.17 in /  1021.6 hPa NE 2.9 mph /  4.7 km/h 6.9 mph /  11.1 km/h 72 % 0.00 in /  0 mm
11:30 79.3 °F /  26.3 °C 70.3 °F /  21.3 °C 30.17 in /  1021.6 hPa ENE 1.7 mph /  2.7 km/h 3.5 mph /  5.6 km/h 74 % 0.00 in /  0 mm
11:31 79.4 °F /  26.3 °C 71.2 °F /  21.8 °C 30.17 in /  1021.6 hPa NNE 1.7 mph /  2.7 km/h 5.0 mph /  8 km/h 76 % 0.00 in /  0 mm
11:36 79.7 °F /  26.5 °C 70.3 °F /  21.3 °C 30.18 in /  1021.9 hPa ENE 2.2 mph /  3.5 km/h 7.0 mph /  11.3 km/h 73 % 0.00 in /  0 mm
11:41 79.8 °F /  26.6 °C 70.8 °F /  21.6 °C 30.18 in /  1021.9 hPa NE 1.7 mph /  2.7 km/h 3.5 mph /  5.6 km/h 74 % 0.00 in /  0 mm
11:47 80.0 °F /  26.7 °C 69.7 °F /  20.9 °C 30.17 in /  1021.6 hPa NE 2.2 mph /  3.5 km/h 6.9 mph /  11.1 km/h 71 % 0.00 in /  0 mm
11:52 79.5 °F /  26.4 °C 69.7 °F /  20.9 °C 30.18 in /  1021.9 hPa ENE 1.3 mph /  2.1 km/h 6.9 mph /  11.1 km/h 72 % 0.00 in /  0 mm
11:57 79.4 °F /  26.3 °C 70.8 °F /  21.6 °C 30.17 in /  1021.6 hPa ENE 0.7 mph /  1.1 km/h 2.3 mph /  3.7 km/h 75 % 0.00 in /  0 mm
12:02 80.1 °F /  26.7 °C 70.7 °F /  21.5 °C 30.18 in /  1021.9 hPa ENE 2.7 mph /  4.3 km/h 3.5 mph /  5.6 km/h 73 % 0.00 in /  0 mm
12:07 80.5 °F /  26.9 °C 70.6 °F /  21.4 °C 30.17 in /  1021.6 hPa ENE 1.3 mph /  2.1 km/h 3.5 mph /  5.6 km/h 72 % 0.00 in /  0 mm
12:12 80.8 °F /  27.1 °C 70.9 °F /  21.6 °C 30.17 in /  1021.6 hPa ENE 3.1 mph /  5 km/h 6.9 mph /  11.1 km/h 72 % 0.00 in /  0 mm
12:17 80.7 °F /  27.1 °C 70.0 °F /  21.1 °C 30.17 in /  1021.6 hPa NE 3.9 mph /  6.3 km/h 5.8 mph /  9.3 km/h 70 % 0.00 in /  0 mm
12:22 81.0 °F /  27.2 °C 71.5 °F /  21.9 °C 30.17 in /  1021.6 hPa NE 1.9 mph /  3.1 km/h 3.5 mph /  5.6 km/h 73 % 0.00 in /  0 mm
12:27 81.2 °F /  27.3 °C 70.1 °F /  21.2 °C 30.17 in /  1021.6 hPa ENE 2.9 mph /  4.7 km/h 6.0 mph /  9.7 km/h 69 % 0.00 in /  0 mm
12:32 81.1 °F /  27.3 °C 71.2 °F /  21.8 °C 30.17 in /  1021.6 hPa ENE 1.2 mph /  1.9 km/h 4.6 mph /  7.4 km/h 72 % 0.00 in /  0 mm
12:37 81.6 °F /  27.6 °C 72.9 °F /  22.7 °C 30.17 in /  1021.6 hPa ENE 0.1 mph /  0.2 km/h 1.2 mph /  1.9 km/h 75 % 0.00 in /  0 mm
12:42 82.0 °F /  27.8 °C 72.1 °F /  22.3 °C 30.17 in /  1021.6 hPa NE 1.3 mph /  2.1 km/h 3.5 mph /  5.6 km/h 72 % 0.00 in /  0 mm
12:47 82.0 °F /  27.8 °C 71.7 °F /  22.1 °C 30.17 in /  1021.6 hPa ENE 0.6 mph /  1 km/h 2.3 mph /  3.7 km/h 71 % 0.00 in /  0 mm
12:52 82.0 °F /  27.8 °C 71.7 °F /  22.1 °C 30.16 in /  1021.2 hPa ENE 2.0 mph /  3.2 km/h 5.0 mph /  8 km/h 71 % 0.00 in /  0 mm
12:57 82.0 °F /  27.8 °C 71.7 °F /  22.1 °C 30.16 in /  1021.2 hPa NE 3.5 mph /  5.6 km/h 5.8 mph /  9.3 km/h 71 % 0.00 in /  0 mm
13:02 82.4 °F /  28 °C 72.5 °F /  22.5 °C 30.16 in /  1021.2 hPa NNE 0.5 mph /  0.8 km/h 2.3 mph /  3.7 km/h 72 % 0.00 in /  0 mm
13:07 82.6 °F /  28.1 °C 72.2 °F /  22.3 °C 30.16 in /  1021.2 hPa NNE 1.1 mph /  1.8 km/h 3.5 mph /  5.6 km/h 71 % 0.00 in /  0 mm
13:12 82.9 °F /  28.3 °C 73.8 °F /  23.2 °C 30.16 in /  1021.2 hPa NE 0.4 mph /  0.6 km/h 2.3 mph /  3.7 km/h 74 % 0.00 in /  0 mm
13:17 83.3 °F /  28.5 °C 72.9 °F /  22.7 °C 30.15 in /  1020.9 hPa Calm   1.2 mph /  1.9 km/h 71 % 0.00 in /  0 mm
13:22 83.2 °F /  28.4 °C 72.4 °F /  22.4 °C 30.16 in /  1021.2 hPa ENE 1.3 mph /  2.1 km/h 4.0 mph /  6.4 km/h 70 % 0.00 in /  0 mm
13:27 82.8 °F /  28.2 °C 72.4 °F /  22.4 °C 30.16 in /  1021.2 hPa East 1.0 mph /  1.6 km/h 6.9 mph /  11.1 km/h 71 % 0.00 in /  0 mm
13:32 82.9 °F /  28.3 °C 72.1 °F /  22.3 °C 30.16 in /  1021.2 hPa NE 1.0 mph /  1.6 km/h 3.5 mph /  5.6 km/h 70 % 0.00 in /  0 mm
13:37 83.2 °F /  28.4 °C 73.2 °F /  22.9 °C 30.16 in /  1021.2 hPa NE 0.2 mph /  0.3 km/h 1.2 mph /  1.9 km/h 72 % 0.00 in /  0 mm
13:43 83.2 °F /  28.4 °C 71.5 °F /  21.9 °C 30.16 in /  1021.2 hPa NE 2.0 mph /  3.2 km/h 3.5 mph /  5.6 km/h 68 % 0.00 in /  0 mm
13:48 82.9 °F /  28.3 °C 72.1 °F /  22.3 °C 30.16 in /  1021.2 hPa Calm   1.2 mph /  1.9 km/h 70 % 0.00 in /  0 mm
13:53 83.1 °F /  28.4 °C 71.4 °F /  21.9 °C 30.15 in /  1020.9 hPa NE 0.1 mph /  0.2 km/h 2.3 mph /  3.7 km/h 68 % 0.00 in /  0 mm
13:58 83.5 °F /  28.6 °C 73.1 °F /  22.8 °C 30.15 in /  1020.9 hPa NE 0.1 mph /  0.2 km/h 1.2 mph /  1.9 km/h 71 % 0.00 in /  0 mm
14:03 83.7 °F /  28.7 °C 72.0 °F /  22.2 °C 30.15 in /  1020.9 hPa NE 1.9 mph /  3.1 km/h 3.5 mph /  5.6 km/h 68 % 0.00 in /  0 mm
14:08 83.7 °F /  28.7 °C 71.1 °F /  21.7 °C 30.15 in /  1020.9 hPa NE 1.4 mph /  2.3 km/h 3.5 mph /  5.6 km/h 66 % 0.00 in /  0 mm
14:13 83.5 °F /  28.6 °C 72.3 °F /  22.4 °C 30.15 in /  1020.9 hPa NE 0.5 mph /  0.8 km/h 3.5 mph /  5.6 km/h 69 % 0.00 in /  0 mm
14:18 83.5 °F /  28.6 °C 70.9 °F /  21.6 °C 30.15 in /  1020.9 hPa ENE 1.8 mph /  2.9 km/h 3.5 mph /  5.6 km/h 66 % 0.00 in /  0 mm
14:23 83.0 °F /  28.3 °C 70.5 °F /  21.4 °C 30.15 in /  1020.9 hPa ENE 2.2 mph /  3.5 km/h 3.5 mph /  5.6 km/h 66 % 0.00 in /  0 mm
14:28 82.9 °F /  28.3 °C 70.8 °F /  21.6 °C 30.15 in /  1020.9 hPa NE 0.2 mph /  0.3 km/h 3.5 mph /  5.6 km/h 67 % 0.00 in /  0 mm
14:33 83.0 °F /  28.3 °C 71.8 °F /  22.1 °C 30.15 in /  1020.9 hPa NE 0.8 mph /  1.3 km/h 3.0 mph /  4.8 km/h 69 % 0.00 in /  0 mm
14:38 83.2 °F /  28.4 °C 70.7 °F /  21.5 °C 30.15 in /  1020.9 hPa ENE 2.1 mph /  3.4 km/h 3.5 mph /  5.6 km/h 66 % 0.00 in /  0 mm
14:43 83.3 °F /  28.5 °C 71.2 °F /  21.8 °C 30.14 in /  1020.5 hPa NE 0.6 mph /  1 km/h 6.0 mph /  9.7 km/h 67 % 0.00 in /  0 mm
14:48 83.2 °F /  28.4 °C 71.5 °F /  21.9 °C 30.14 in /  1020.5 hPa ENE 0.9 mph /  1.4 km/h 3.0 mph /  4.8 km/h 68 % 0.00 in /  0 mm
14:50 83.3 °F /  28.5 °C 70.3 °F /  21.3 °C 30.15 in /  1020.9 hPa ENE 0.5 mph /  0.8 km/h 3.5 mph /  5.6 km/h 65 % 0.00 in /  0 mm
14:55 83.4 °F /  28.6 °C 70.4 °F /  21.3 °C 30.14 in /  1020.5 hPa NE 1.9 mph /  3.1 km/h 3.5 mph /  5.6 km/h 65 % 0.00 in /  0 mm
15:00 83.6 °F /  28.7 °C 70.1 °F /  21.2 °C 30.15 in /  1020.9 hPa ENE 2.9 mph /  4.7 km/h 6.9 mph /  11.1 km/h 64 % 0.00 in /  0 mm
15:05 83.5 °F /  28.6 °C 70.5 °F /  21.4 °C 30.14 in /  1020.5 hPa NE 0.2 mph /  0.3 km/h 1.2 mph /  1.9 km/h 65 % 0.00 in /  0 mm
15:10 83.7 °F /  28.7 °C 65.3 °F /  18.5 °C 30.14 in /  1020.5 hPa SE 2.6 mph /  4.2 km/h 5.8 mph /  9.3 km/h 54 % 0.00 in /  0 mm
15:15 84.1 °F /  28.9 °C 64.6 °F /  18.1 °C 30.14 in /  1020.5 hPa Calm   1.2 mph /  1.9 km/h 52 % 0.00 in /  0 mm
15:20 84.6 °F /  29.2 °C 63.3 °F /  17.4 °C 30.14 in /  1020.5 hPa SE 2.1 mph /  3.4 km/h 3.5 mph /  5.6 km/h 49 % 0.00 in /  0 mm
15:25 84.9 °F /  29.4 °C 63.0 °F /  17.2 °C 30.15 in /  1020.9 hPa ESE 0.4 mph /  0.6 km/h 2.3 mph /  3.7 km/h 48 % 0.00 in /  0 mm
15:30 85.0 °F /  29.4 °C 60.0 °F /  15.6 °C 30.15 in /  1020.9 hPa SE 3.6 mph /  5.8 km/h 9.2 mph /  14.8 km/h 43 % 0.00 in /  0 mm
15:35 85.0 °F /  29.4 °C 63.1 °F /  17.3 °C 30.15 in /  1020.9 hPa SE 3.2 mph /  5.1 km/h 5.0 mph /  8 km/h 48 % 0.00 in /  0 mm
15:40 85.0 °F /  29.4 °C 60.6 °F /  15.9 °C 30.15 in /  1020.9 hPa SE 0.5 mph /  0.8 km/h 4.6 mph /  7.4 km/h 44 % 0.00 in /  0 mm
15:46 85.1 °F /  29.5 °C 60.7 °F /  15.9 °C 30.15 in /  1020.9 hPa SSE 5.2 mph /  8.4 km/h 5.8 mph /  9.3 km/h 44 % 0.00 in /  0 mm
15:51 85.1 °F /  29.5 °C 60.7 °F /  15.9 °C 30.14 in /  1020.5 hPa South 1.8 mph /  2.9 km/h 5.8 mph /  9.3 km/h 44 % 0.00 in /  0 mm
15:56 85.2 °F /  29.6 °C 60.8 °F /  16 °C 30.14 in /  1020.5 hPa SE 5.3 mph /  8.5 km/h 6.9 mph /  11.1 km/h 44 % 0.00 in /  0 mm
16:01 85.0 °F /  29.4 °C 59.3 °F /  15.2 °C 30.14 in /  1020.5 hPa SSE 3.7 mph /  6 km/h 7.0 mph /  11.3 km/h 42 % 0.00 in /  0 mm
16:06 84.8 °F /  29.3 °C 62.3 °F /  16.8 °C 30.14 in /  1020.5 hPa SSE 1.4 mph /  2.3 km/h 3.5 mph /  5.6 km/h 47 % 0.00 in /  0 mm
16:11 84.6 °F /  29.2 °C 61.5 °F /  16.4 °C 30.14 in /  1020.5 hPa SE 3.1 mph /  5 km/h 10.4 mph /  16.7 km/h 46 % 0.00 in /  0 mm
16:16 84.1 °F /  28.9 °C 59.2 °F /  15.1 °C 30.14 in /  1020.5 hPa ESE 6.1 mph /  9.8 km/h 11.5 mph /  18.5 km/h 43 % 0.00 in /  0 mm
16:21 83.6 °F /  28.7 °C 59.4 °F /  15.2 °C 30.14 in /  1020.5 hPa SE 2.4 mph /  3.9 km/h 6.9 mph /  11.1 km/h 44 % 0.00 in /  0 mm
16:26 83.5 °F /  28.6 °C 59.9 °F /  15.5 °C 30.14 in /  1020.5 hPa SE 4.1 mph /  6.6 km/h 5.0 mph /  8 km/h 45 % 0.00 in /  0 mm
16:31 83.4 °F /  28.6 °C 59.2 °F /  15.1 °C 30.13 in /  1020.2 hPa SE 4.2 mph /  6.8 km/h 10.4 mph /  16.7 km/h 44 % 0.00 in /  0 mm
16:36 83.4 °F /  28.6 °C 59.2 °F /  15.1 °C 30.14 in /  1020.5 hPa SSE 2.0 mph /  3.2 km/h 4.6 mph /  7.4 km/h 44 % 0.00 in /  0 mm
16:41 83.4 °F /  28.6 °C 57.9 °F /  14.4 °C 30.13 in /  1020.2 hPa ESE 2.5 mph /  4 km/h 5.0 mph /  8 km/h 42 % 0.00 in /  0 mm
16:46 83.4 °F /  28.6 °C 55.8 °F /  13.2 °C 30.13 in /  1020.2 hPa SSE 1.6 mph /  2.6 km/h 3.5 mph /  5.6 km/h 39 % 0.00 in /  0 mm
16:48 83.4 °F /  28.6 °C 56.5 °F /  13.6 °C 30.13 in /  1020.2 hPa SE 2.7 mph /  4.3 km/h 5.0 mph /  8 km/h 40 % 0.00 in /  0 mm
16:53 83.3 °F /  28.5 °C 55.0 °F /  12.8 °C 30.14 in /  1020.5 hPa SSE 4.7 mph /  7.6 km/h 9.2 mph /  14.8 km/h 38 % 0.00 in /  0 mm
16:58 83.1 °F /  28.4 °C 56.3 °F /  13.5 °C 30.14 in /  1020.5 hPa SE 2.0 mph /  3.2 km/h 5.0 mph /  8 km/h 40 % 0.00 in /  0 mm
17:04 82.8 °F /  28.2 °C 56.0 °F /  13.3 °C 30.14 in /  1020.5 hPa SSE 7.5 mph /  12.1 km/h 15.0 mph /  24.1 km/h 40 % 0.00 in /  0 mm
17:09 82.7 °F /  28.2 °C 57.9 °F /  14.4 °C 30.14 in /  1020.5 hPa SSE 1.0 mph /  1.6 km/h 2.0 mph /  3.2 km/h 43 % 0.00 in /  0 mm
17:14 82.7 °F /  28.2 °C 57.3 °F /  14.1 °C 30.14 in /  1020.5 hPa SSE 6.6 mph /  10.6 km/h 9.2 mph /  14.8 km/h 42 % 0.00 in /  0 mm
17:19 82.4 °F /  28 °C 56.3 °F /  13.5 °C 30.13 in /  1020.2 hPa SE 2.3 mph /  3.7 km/h 7.0 mph /  11.3 km/h 41 % 0.00 in /  0 mm
17:24 82.3 °F /  27.9 °C 57.6 °F /  14.2 °C 30.14 in /  1020.5 hPa South 1.0 mph /  1.6 km/h 3.5 mph /  5.6 km/h 43 % 0.00 in /  0 mm
17:29 82.1 °F /  27.8 °C 56.7 °F /  13.7 °C 30.13 in /  1020.2 hPa South 1.2 mph /  1.9 km/h 3.5 mph /  5.6 km/h 42 % 0.00 in /  0 mm
17:34 81.9 °F /  27.7 °C 57.8 °F /  14.3 °C 30.13 in /  1020.2 hPa SE 0.7 mph /  1.1 km/h 2.3 mph /  3.7 km/h 44 % 0.00 in /  0 mm
17:39 81.8 °F /  27.7 °C 57.1 °F /  13.9 °C 30.13 in /  1020.2 hPa SSE 1.3 mph /  2.1 km/h 4.0 mph /  6.4 km/h 43 % 0.00 in /  0 mm
17:44 81.6 °F /  27.6 °C 56.9 °F /  13.8 °C 30.13 in /  1020.2 hPa SSW 1.2 mph /  1.9 km/h 3.5 mph /  5.6 km/h 43 % 0.00 in /  0 mm
17:49 81.4 °F /  27.4 °C 57.4 °F /  14.1 °C 30.14 in /  1020.5 hPa South 0.3 mph /  0.5 km/h 3.0 mph /  4.8 km/h 44 % 0.00 in /  0 mm
17:54 81.2 °F /  27.3 °C 56.6 °F /  13.7 °C 30.13 in /  1020.2 hPa SE 0.8 mph /  1.3 km/h 3.0 mph /  4.8 km/h 43 % 0.00 in /  0 mm
17:59 80.8 °F /  27.1 °C 56.2 °F /  13.4 °C 30.14 in /  1020.5 hPa SSE 4.4 mph /  7.1 km/h 8.0 mph /  12.9 km/h 43 % 0.00 in /  0 mm
18:04 80.4 °F /  26.9 °C 56.5 °F /  13.6 °C 30.14 in /  1020.5 hPa SE 5.0 mph /  8 km/h 9.2 mph /  14.8 km/h 44 % 0.00 in /  0 mm
18:09 80.2 °F /  26.8 °C 56.9 °F /  13.8 °C 30.14 in /  1020.5 hPa SE 0.3 mph /  0.5 km/h 3.5 mph /  5.6 km/h 45 % 0.00 in /  0 mm
18:14 80.0 °F /  26.7 °C 57.4 °F /  14.1 °C 30.14 in /  1020.5 hPa SE 1.7 mph /  2.7 km/h 3.5 mph /  5.6 km/h 46 % 0.00 in /  0 mm
18:19 80.0 °F /  26.7 °C 58.0 °F /  14.4 °C 30.14 in /  1020.5 hPa SE 1.1 mph /  1.8 km/h 3.5 mph /  5.6 km/h 47 % 0.00 in /  0 mm
18:24 79.9 °F /  26.6 °C 57.3 °F /  14.1 °C 30.14 in /  1020.5 hPa SSE 2.9 mph /  4.7 km/h 8.1 mph /  13 km/h 46 % 0.00 in /  0 mm
18:29 79.8 °F /  26.6 °C 57.8 °F /  14.3 °C 30.14 in /  1020.5 hPa SSE 2.8 mph /  4.5 km/h 3.5 mph /  5.6 km/h 47 % 0.00 in /  0 mm
18:34 79.7 °F /  26.5 °C 58.8 °F /  14.9 °C 30.14 in /  1020.5 hPa SSE 1.2 mph /  1.9 km/h 3.5 mph /  5.6 km/h 49 % 0.00 in /  0 mm
18:39 79.6 °F /  26.4 °C 57.0 °F /  13.9 °C 30.14 in /  1020.5 hPa SE 3.8 mph /  6.1 km/h 5.0 mph /  8 km/h 46 % 0.00 in /  0 mm
18:44 79.5 °F /  26.4 °C 59.2 °F /  15.1 °C 30.14 in /  1020.5 hPa SE 0.2 mph /  0.3 km/h 2.0 mph /  3.2 km/h 50 % 0.00 in /  0 mm
18:49 79.3 °F /  26.3 °C 57.3 °F /  14.1 °C 30.14 in /  1020.5 hPa SE 4.4 mph /  7.1 km/h 5.0 mph /  8 km/h 47 % 0.00 in /  0 mm
18:54 79.1 °F /  26.2 °C 57.7 °F /  14.3 °C 30.14 in /  1020.5 hPa SSE 4.1 mph /  6.6 km/h 5.0 mph /  8 km/h 48 % 0.00 in /  0 mm
18:59 78.9 °F /  26.1 °C 57.0 °F /  13.9 °C 30.14 in /  1020.5 hPa SE 3.7 mph /  6 km/h 8.1 mph /  13 km/h 47 % 0.00 in /  0 mm
19:04 78.7 °F /  25.9 °C 57.4 °F /  14.1 °C 30.13 in /  1020.2 hPa SE 3.3 mph /  5.3 km/h 5.8 mph /  9.3 km/h 48 % 0.00 in /  0 mm
19:09 78.5 °F /  25.8 °C 57.7 °F /  14.3 °C 30.14 in /  1020.5 hPa SSE 1.3 mph /  2.1 km/h 2.3 mph /  3.7 km/h 49 % 0.00 in /  0 mm
19:14 78.3 °F /  25.7 °C 58.1 °F /  14.5 °C 30.14 in /  1020.5 hPa SSE 0.9 mph /  1.4 km/h 3.5 mph /  5.6 km/h 50 % 0.00 in /  0 mm
19:19 78.2 °F /  25.7 °C 59.1 °F /  15.1 °C 30.14 in /  1020.5 hPa SSE 0.5 mph /  0.8 km/h 2.3 mph /  3.7 km/h 52 % 0.00 in /  0 mm
19:24 78.1 °F /  25.6 °C 59.0 °F /  15 °C 30.14 in /  1020.5 hPa SSE 1.4 mph /  2.3 km/h 2.3 mph /  3.7 km/h 52 % 0.00 in /  0 mm
19:29 77.9 °F /  25.5 °C 58.9 °F /  14.9 °C 30.14 in /  1020.5 hPa Calm   3.5 mph /  5.6 km/h 52 % 0.00 in /  0 mm
19:34 77.7 °F /  25.4 °C 58.7 °F /  14.8 °C 30.14 in /  1020.5 hPa SE 2.1 mph /  3.4 km/h 2.3 mph /  3.7 km/h 52 % 0.00 in /  0 mm
19:39 77.5 °F /  25.3 °C 59.0 °F /  15 °C 30.14 in /  1020.5 hPa SE 0.4 mph /  0.6 km/h 3.5 mph /  5.6 km/h 53 % 0.00 in /  0 mm
19:44 77.3 °F /  25.2 °C 58.8 °F /  14.9 °C 30.14 in /  1020.5 hPa South 2.6 mph /  4.2 km/h 8.1 mph /  13 km/h 53 % 0.00 in /  0 mm
19:49 77.0 °F /  25 °C 58.6 °F /  14.8 °C 30.14 in /  1020.5 hPa SE 2.4 mph /  3.9 km/h 4.0 mph /  6.4 km/h 53 % 0.00 in /  0 mm
19:54 76.8 °F /  24.9 °C 59.4 °F /  15.2 °C 30.14 in /  1020.5 hPa SE 0.5 mph /  0.8 km/h 3.5 mph /  5.6 km/h 55 % 0.00 in /  0 mm
19:59 76.5 °F /  24.7 °C 59.1 °F /  15.1 °C 30.14 in /  1020.5 hPa SE 2.3 mph /  3.7 km/h 3.5 mph /  5.6 km/h 55 % 0.00 in /  0 mm
20:05 76.3 °F /  24.6 °C 59.4 °F /  15.2 °C 30.13 in /  1020.2 hPa SE 0.9 mph /  1.4 km/h 2.3 mph /  3.7 km/h 56 % 0.00 in /  0 mm
20:10 76.0 °F /  24.4 °C 59.7 °F /  15.4 °C 30.13 in /  1020.2 hPa SE 0.2 mph /  0.3 km/h   57 % 0.00 in /  0 mm
20:15 75.7 °F /  24.3 °C 59.9 °F /  15.5 °C 30.13 in /  1020.2 hPa SE 1.6 mph /  2.6 km/h 2.3 mph /  3.7 km/h 58 % 0.00 in /  0 mm
20:20 75.4 °F /  24.1 °C 60.1 °F /  15.6 °C 30.14 in /  1020.5 hPa Calm   1.2 mph /  1.9 km/h 59 % 0.00 in /  0 mm
20:25 75.1 °F /  23.9 °C 60.3 °F /  15.7 °C 30.14 in /  1020.5 hPa SE 2.3 mph /  3.7 km/h 4.6 mph /  7.4 km/h 60 % 0.00 in /  0 mm
20:30 74.8 °F /  23.8 °C 60.4 °F /  15.8 °C 30.14 in /  1020.5 hPa SE 0.5 mph /  0.8 km/h 2.3 mph /  3.7 km/h 61 % 0.00 in /  0 mm
20:35 74.5 °F /  23.6 °C 60.2 °F /  15.7 °C 30.14 in /  1020.5 hPa Calm   1.2 mph /  1.9 km/h 61 % 0.00 in /  0 mm
20:40 74.3 °F /  23.5 °C 60.4 °F /  15.8 °C 30.14 in /  1020.5 hPa SE 0.3 mph /  0.5 km/h 2.3 mph /  3.7 km/h 62 % 0.00 in /  0 mm
20:45 74.0 °F /  23.3 °C 60.6 °F /  15.9 °C 30.14 in /  1020.5 hPa Calm   1.2 mph /  1.9 km/h 63 % 0.00 in /  0 mm
20:50 73.8 °F /  23.2 °C 60.4 °F /  15.8 °C 30.14 in /  1020.5 hPa Calm     63 % 0.00 in /  0 mm
20:55 73.6 °F /  23.1 °C 60.7 °F /  15.9 °C 30.14 in /  1020.5 hPa SE 0.5 mph /  0.8 km/h 2.3 mph /  3.7 km/h 64 % 0.00 in /  0 mm
21:00 73.3 °F /  22.9 °C 60.8 °F /  16 °C 30.14 in /  1020.5 hPa SE 0.1 mph /  0.2 km/h 1.2 mph /  1.9 km/h 65 % 0.00 in /  0 mm
21:05 73.1 °F /  22.8 °C 60.6 °F /  15.9 °C 30.14 in /  1020.5 hPa SE 0.3 mph /  0.5 km/h 1.2 mph /  1.9 km/h 65 % 0.00 in /  0 mm
21:10 72.9 °F /  22.7 °C 61.3 °F /  16.3 °C 30.15 in /  1020.9 hPa Calm     67 % 0.00 in /  0 mm
21:15 72.6 °F /  22.6 °C 61.4 °F /  16.3 °C 30.15 in /  1020.9 hPa Calm     68 % 0.00 in /  0 mm
21:20 72.3 °F /  22.4 °C 61.6 °F /  16.4 °C 30.15 in /  1020.9 hPa Calm     69 % 0.00 in /  0 mm
21:25 72.1 °F /  22.3 °C 61.4 °F /  16.3 °C 30.15 in /  1020.9 hPa Calm     69 % 0.00 in /  0 mm
21:30 71.8 °F /  22.1 °C 61.1 °F /  16.2 °C 30.15 in /  1020.9 hPa Calm     69 % 0.00 in /  0 mm
21:35 71.5 °F /  21.9 °C 61.2 °F /  16.2 °C 30.16 in /  1021.2 hPa Calm     70 % 0.00 in /  0 mm
21:40 71.2 °F /  21.8 °C 61.3 °F /  16.3 °C 30.16 in /  1021.2 hPa Calm     71 % 0.00 in /  0 mm
21:45 70.9 °F /  21.6 °C 61.8 °F /  16.6 °C 30.16 in /  1021.2 hPa Calm     73 % 0.00 in /  0 mm
21:50 70.6 °F /  21.4 °C 61.5 °F /  16.4 °C 30.16 in /  1021.2 hPa Calm     73 % 0.00 in /  0 mm
21:56 70.4 °F /  21.3 °C 61.3 °F /  16.3 °C 30.17 in /  1021.6 hPa Calm   1.2 mph /  1.9 km/h 73 % 0.00 in /  0 mm
22:01 70.2 °F /  21.2 °C 61.5 °F /  16.4 °C 30.17 in /  1021.6 hPa Calm     74 % 0.00 in /  0 mm
22:06 69.9 °F /  21.1 °C 61.2 °F /  16.2 °C 30.17 in /  1021.6 hPa Calm     74 % 0.00 in /  0 mm
22:11 69.7 °F /  20.9 °C 61.4 °F /  16.3 °C 30.17 in /  1021.6 hPa Calm     75 % 0.00 in /  0 mm
22:16 69.5 °F /  20.8 °C 61.6 °F /  16.4 °C 30.17 in /  1021.6 hPa Calm     76 % 0.00 in /  0 mm
22:21 69.3 °F /  20.7 °C 61.4 °F /  16.3 °C 30.17 in /  1021.6 hPa Calm     76 % 0.00 in /  0 mm
22:26 69.1 °F /  20.6 °C 61.2 °F /  16.2 °C 30.17 in /  1021.6 hPa Calm     76 % 0.00 in /  0 mm
22:31 69.0 °F /  20.6 °C 61.5 °F /  16.4 °C 30.17 in /  1021.6 hPa Calm     77 % 0.00 in /  0 mm
22:36 68.8 °F /  20.4 °C 61.3 °F /  16.3 °C 30.17 in /  1021.6 hPa Calm     77 % 0.00 in /  0 mm
22:41 68.6 °F /  20.3 °C 61.1 °F /  16.2 °C 30.17 in /  1021.6 hPa Calm     77 % 0.00 in /  0 mm
22:46 68.5 °F /  20.3 °C 61.4 °F /  16.3 °C 30.18 in /  1021.9 hPa Calm     78 % 0.00 in /  0 mm
22:51 68.4 °F /  20.2 °C 61.6 °F /  16.4 °C 30.17 in /  1021.6 hPa Calm     79 % 0.00 in /  0 mm
22:56 68.3 °F /  20.2 °C 61.5 °F /  16.4 °C 30.17 in /  1021.6 hPa Calm     79 % 0.00 in /  0 mm
23:01 68.1 °F /  20.1 °C 61.3 °F /  16.3 °C 30.17 in /  1021.6 hPa Calm     79 % 0.00 in /  0 mm
23:06 68.1 °F /  20.1 °C 61.3 °F /  16.3 °C 30.17 in /  1021.6 hPa Calm     79 % 0.00 in /  0 mm
23:11 68.0 °F /  20 °C 61.6 °F /  16.4 °C 30.17 in /  1021.6 hPa Calm     80 % 0.00 in /  0 mm
23:16 67.9 °F /  19.9 °C 61.5 °F /  16.4 °C 30.17 in /  1021.6 hPa Calm     80 % 0.00 in /  0 mm
23:21 67.8 °F /  19.9 °C 61.4 °F /  16.3 °C 30.17 in /  1021.6 hPa Calm     80 % 0.00 in /  0 mm
23:26 67.7 °F /  19.8 °C 61.3 °F /  16.3 °C 30.16 in /  1021.2 hPa Calm     80 % 0.00 in /  0 mm
23:31 67.6 °F /  19.8 °C 61.6 °F /  16.4 °C 30.16 in /  1021.2 hPa Calm     81 % 0.00 in /  0 mm
23:37 67.5 °F /  19.7 °C 61.8 °F /  16.6 °C 30.16 in /  1021.2 hPa Calm     82 % 0.00 in /  0 mm
23:42 67.4 °F /  19.7 °C 61.7 °F /  16.5 °C 30.15 in /  1020.9 hPa Calm     82 % 0.00 in /  0 mm
23:47 67.3 °F /  19.6 °C 61.6 °F /  16.4 °C 30.15 in /  1020.9 hPa Calm     82 % 0.00 in /  0 mm
23:52 67.2 °F /  19.6 °C 61.5 °F /  16.4 °C 30.15 in /  1020.9 hPa Calm     82 % 0.00 in /  0 mm
23:57 67.0 °F /  19.4 °C 61.3 °F /  16.3 °C 30.15 in /  1020.9 hPa Calm     82 % 0.00 in /  0 mm
Crab Meadow Weather
Compliments of Weather Underground - 3 mb

Script developed by  Jim McMurry - jmcmurry@mwt.net Adapted for the template by  Wim van der Kuil - Leuven-Template.eu

Extremes: By average annual rainfall, the wettest place in the world is Mawslynram, in Meghalaya State, India with 467 1/2 inches per annum.